Regional Weather Roundup
Issued by NWS Little Rock, AR

Home | Current Version | Previous Version | Graphics & Text | Print | Product List | Glossary On
Versions: 1 2 3 4 5 6 7 8 9 10 11 12 13 14 15 16 17 18 19 20 21 22 23 24 25 26 27 28 29 30 31 32 33
000
ASUS44 KLZK 290505
RWRLZK

WEATHER ROUNDUP FOR ARKANSAS
NATIONAL WEATHER SERVICE LITTLE ROCK AR
1200 AM CDT THU SEP 29 2016

NOTE: "FAIR" INDICATES FEW OR NO CLOUDS BELOW 12,000 FEET WITH NO
SIGNIFICANT WEATHER AND/OR OBSTRUCTIONS TO VISIBILITY.

ARZ001-003-010-029-290600-
NORTHWEST ARKANSAS

CITY           SKY/WX    TMP DP  RH WIND       PRES   REMARKS
FAYETTEVILLE   CLEAR     54  49  83 CALM      30.20R
FORT SMITH     PTCLDY    63  47  55 N8        30.15R
HARRISON       CLEAR     54  47  77 N6        30.20R
BENTONVILLE    CLEAR     55  45  67 NE10      30.21R
ROGERS         CLEAR     54  47  77 N8        30.22R
SILOAM SPGS    CLEAR     55  41  58 NE6       30.22R
HIGHFILL       CLEAR     56  48  74 N10       30.21R
$$

ARZ004-005-016-290600-
NORTH CENTRAL ARKANSAS

CITY           SKY/WX    TMP DP  RH WIND       PRES   REMARKS
BATESVILLE     CLEAR     61  45  55 N6        30.15R
FLIPPIN        PTCLDY    59  45  58 N7        30.17R
MTN HOME       CLEAR     57  46  66 VRB5      30.19R
$$

ARZ040-041-290600-
WEST CENTRAL ARKANSAS

CITY           SKY/WX    TMP DP  RH WIND       PRES   REMARKS
MENA           CLEAR    N/A N/A N/A CALM      30.14R
MOUNT IDA      CLEAR     66  47  50 CALM      30.10R
$$

ARZ009-017-025-026-028-290600-
NORTHEAST ARKANSAS

CITY           SKY/WX    TMP DP  RH WIND       PRES   REMARKS
CORNING          N/A     54  50  87 NW5       30.14S
JONESBORO      CLEAR     61  47  59 N10       30.12R
NEWPORT        CLEAR     59  49  69 N13       30.13R HAZE
WALNUT RIDGE   PTCLDY    57  46  67 N7        30.13S
BLYTHEVILLE    PTCLDY    55  47  74 N6        30.11S
$$

ARZ022-023-033-042-044-290600-
CENTRAL ARKANSAS

CITY           SKY/WX    TMP DP  RH WIND       PRES   REMARKS
LITTLE ROCK    CLEAR     67  47  48 NE7       30.12R
N LITTLE ROCK    N/A     63  48  58 NE8       30.10R
JACKSONVILLE   CLEAR     65  48  53 NE6       30.12R
SEARCY         CLEAR     61  49  64 N6        30.14R
HOT SPRINGS    CLEAR     69  46  43 VRB5      30.11R
RUSSELLVILLE   PTCLDY    64  47  53 N5        30.14R
$$

ARZ036-290600-
EAST ARKANSAS

CITY           SKY/WX    TMP DP  RH WIND       PRES   REMARKS
WEST MEMPHIS   CLEAR     60  46  59 NE8       30.09R
$$

ARZ050-053-066-070-073-290600-
SOUTHWEST ARKANSAS

CITY           SKY/WX    TMP DP  RH WIND       PRES   REMARKS
ARKADELPHIA    FAIR      68  51  54 NE8       30.10R
TEXARKANA      CLEAR     71  56  58 N6        30.07R
EL DORADO      CLEAR     69  58  67 N10       30.05R
DE QUEEN       CLEAR     69  50  50 NE6       30.07R
$$

ARZ056-057-069-290600-
SOUTHEAST ARKANSAS

CITY           SKY/WX    TMP DP  RH WIND       PRES   REMARKS
PINE BLUFF     PTCLDY    67  49  52 N14G20    30.10R
STUTTGART      CLEAR     64  46  52 N13       30.11R
MONTICELLO     CLEAR     71  48  43 NE8G16    30.07R

$$






USA.gov is the U.S. government's official web portal to all federal, state and local government web resources and services.